﻿_id,日時,平均風速(m/s),平均風向,最大瞬間風速(m/s),最大風速時風向,気温(℃),湿度(%),10分間移動積算雨量(mm),1時間移動積算雨量(mm),日雨量(mm),累計雨量(mm),日射(日積算)(MJ/m2),日照(日積算)(min),現地気圧(hPa),海面気圧(hPa)
1,2024-06-17T00:00:00,1.2,北北東,2.7,北北東,21.5,98.1,0,0,68.5,68.5,14.93,270,996.9,1010.4
2,2024-06-17T00:01:00,1.3,北北東,2.7,北北東,21.5,98.1,0,0,0,68.5,0,0,996.9,1010.4
3,2024-06-17T00:02:00,1.4,北北東,2.7,北北東,21.7,98.4,0,0,0,68.5,0,0,996.9,1010.4
4,2024-06-17T00:03:00,1.3,北北東,2.7,北北東,21.6,98.2,0,0,0,68.5,0,0,996.9,1010.4
5,2024-06-17T00:04:00,1.3,北北東,2.7,北北東,21.6,98.2,0,0,0,68.5,0,0,996.9,1010.4
6,2024-06-17T00:05:00,1.3,北北東,2.7,北北東,21.6,98.2,0,0,0,68.5,0,0,996.8,1010.3
7,2024-06-17T00:06:00,1.3,北北東,2.7,北北東,21.4,98,0,0,0,68.5,0,0,996.8,1010.3
8,2024-06-17T00:07:00,1.1,北東,2.7,北北東,21.4,98,0,0,0,68.5,0,0,996.8,1010.3
9,2024-06-17T00:08:00,1,北東,2.7,北北東,21.5,98,0,0,0,68.5,0,0,996.8,1010.3
10,2024-06-17T00:09:00,0.9,北東,2.7,北北東,21.5,98,0,0,0,68.5,0,0,996.8,1010.3
11,2024-06-17T00:10:00,0.8,北東,2.3,北北東,21.4,98.1,0,0,0,68.5,0,0,996.8,1010.3
12,2024-06-17T00:11:00,0.8,北東,1.8,北北東,21.5,98.1,0,0,0,68.5,0,0,996.7,1010.2
13,2024-06-17T00:12:00,0.7,北東,1.6,北,21.5,98.2,0,0,0,68.5,0,0,996.7,1010.2
14,2024-06-17T00:13:00,0.7,北東,1.4,北東,21.6,98.2,0,0,0,68.5,0,0,996.7,1010.2
15,2024-06-17T00:14:00,0.7,北東,1.5,北東,21.5,98.1,0,0,0,68.5,0,0,996.7,1010.2
16,2024-06-17T00:15:00,0.7,北東,1.5,北東,21.5,98.1,0,0,0,68.5,0,0,996.7,1010.2
17,2024-06-17T00:16:00,0.8,北東,1.5,北東,21.6,98.1,0,0,0,68.5,0,0,996.7,1010.2
18,2024-06-17T00:17:00,0.8,北北東,1.5,北東,21.6,98,0,0,0,68.5,0,0,996.7,1010.2
19,2024-06-17T00:18:00,0.8,北北東,1.5,北東,21.4,97.8,0,0,0,68.5,0,0,996.7,1010.2
20,2024-06-17T00:19:00,0.8,北北東,1.5,北東,21.6,98,0,0,0,68.5,0,0,996.7,1010.2
21,2024-06-17T00:20:00,0.8,北北東,1.5,北東,21.6,98,0,0,0,68.5,0,0,996.8,1010.3
22,2024-06-17T00:21:00,0.8,北北東,1.6,北,21.5,97.9,0,0,0,68.5,0,0,996.8,1010.3
23,2024-06-17T00:22:00,0.8,北北東,2,北北東,21.6,98.2,0,0,0,68.5,0,0,996.8,1010.3
24,2024-06-17T00:23:00,0.8,北北東,2,北北東,21.6,98,0,0,0,68.5,0,0,996.8,1010.3
25,2024-06-17T00:24:00,0.8,北北東,2,北北東,21.5,98,0,0,0,68.5,0,0,996.9,1010.4
26,2024-06-17T00:25:00,0.7,北北東,2,北北東,21.3,98,0,0,0,68.5,0,0,996.9,1010.4
27,2024-06-17T00:26:00,0.6,北北東,2,北北東,21.1,97.9,0,0,0,68.5,0,0,996.9,1010.4
28,2024-06-17T00:27:00,0.6,北,2,北北東,21.1,98,0,0,0,68.5,0,0,996.9,1010.4
29,2024-06-17T00:28:00,0.6,北,2,北北東,21,98.2,0,0,0,68.5,0,0,996.9,1010.4
30,2024-06-17T00:29:00,0.6,北,2,北北東,21.1,98.2,0,0,0,68.5,0,0,996.8,1010.3
31,2024-06-17T00:30:00,0.6,北西,2,北北東,20.9,98.1,0,0,0,68.5,0,0,996.8,1010.3
32,2024-06-17T00:31:00,0.6,西,2,北北東,21,98.2,0,0,0,68.5,0,0,996.9,1010.4
33,2024-06-17T00:32:00,0.6,西,1.6,西,20.9,98.1,0,0,0,68.5,0,0,996.9,1010.4
34,2024-06-17T00:33:00,0.6,西南西,1.8,西,21.1,98.2,0,0,0,68.5,0,0,996.9,1010.4
35,2024-06-17T00:34:00,0.7,西南西,1.8,西,21.1,98.2,0,0,0,68.5,0,0,996.9,1010.4
36,2024-06-17T00:35:00,0.7,西,1.8,西,21.2,98.2,0,0,0,68.5,0,0,996.9,1010.4
37,2024-06-17T00:36:00,0.7,西,1.8,西,20.9,97.9,0,0,0,68.5,0,0,997,1010.5
38,2024-06-17T00:37:00,0.8,西,1.8,西,20.8,97.9,0,0,0,68.5,0,0,996.9,1010.4
39,2024-06-17T00:38:00,0.8,西,1.8,西,21,98.1,0,0,0,68.5,0,0,997,1010.5
40,2024-06-17T00:39:00,0.8,西,1.8,西,21,98.2,0,0,0,68.5,0,0,997,1010.5
41,2024-06-17T00:40:00,0.8,西,1.8,西,21,98.1,0,0,0,68.5,0,0,996.9,1010.4
42,2024-06-17T00:41:00,0.9,西,2.4,西南西,20.6,97.6,0,0,0,68.5,0,0,997,1010.5
43,2024-06-17T00:42:00,1,西,2.4,西南西,20.6,97.5,0,0,0,68.5,0,0,996.9,1010.4
44,2024-06-17T00:43:00,1.1,西,2.6,西,20.5,97.7,0,0,0,68.5,0,0,997,1010.5
45,2024-06-17T00:44:00,1.1,西,2.6,西,20.4,97.7,0,0,0,68.5,0,0,997,1010.5
46,2024-06-17T00:45:00,1.2,西,2.6,西,20.4,97.8,0,0,0,68.5,0,0,996.9,1010.4
47,2024-06-17T00:46:00,1.3,西,2.6,西,20.4,97.9,0,0,0,68.5,0,0,997,1010.5
48,2024-06-17T00:47:00,1.5,西,2.6,西,20.5,98,0,0,0,68.5,0,0,997,1010.5
49,2024-06-17T00:48:00,1.6,西,2.6,西,20.4,97.9,0,0,0,68.5,0,0,997,1010.5
50,2024-06-17T00:49:00,1.7,西,2.6,西,20.5,98,0,0,0,68.5,0,0,997,1010.5
51,2024-06-17T00:50:00,1.7,西,2.6,西,20.7,98.1,0,0,0,68.5,0,0,997.1,1010.6
52,2024-06-17T00:51:00,1.6,西,2.6,西,20.7,98,0,0,0,68.5,0,0,997,1010.5
53,2024-06-17T00:52:00,1.6,西,2.6,西,20.5,97.8,0,0,0,68.5,0,0,997,1010.5
54,2024-06-17T00:53:00,1.6,西,2.6,西,20.5,97.8,0,0,0,68.5,0,0,997,1010.5
55,2024-06-17T00:54:00,1.5,西,2.6,西,20.6,97.9,0,0,0,68.5,0,0,997,1010.5
56,2024-06-17T00:55:00,1.5,西,2.6,西,20.6,97.9,0,0,0,68.5,0,0,997,1010.5
57,2024-06-17T00:56:00,1.5,西北西,2.6,西,20.5,98,0,0,0,68.5,0,0,997,1010.5
58,2024-06-17T00:57:00,1.4,西北西,2.3,西,20.5,97.9,0,0,0,68.5,0,0,997,1010.5
59,2024-06-17T00:58:00,1.3,西北西,2,西,20.7,98.1,0,0,0,68.5,0,0,997,1010.5
60,2024-06-17T00:59:00,1.3,西北西,2,西,20.7,98.2,0,0,0,68.5,0,0,997,1010.5
61,2024-06-17T01:00:00,1.3,西北西,2,西,20.7,98.1,0,0,0,68.5,0,0,997,1010.5
62,2024-06-17T01:01:00,1.3,西北西,1.9,西,20.7,98,0,0,0,68.5,0,0,997,1010.5
63,2024-06-17T01:02:00,1.2,西北西,1.8,西北西,20.6,98,0,0,0,68.5,0,0,997,1010.5
64,2024-06-17T01:03:00,1.2,西,1.8,西北西,20.5,97.9,0,0,0,68.5,0,0,997,1010.5
65,2024-06-17T01:04:00,1.2,西,1.9,西,20.4,97.9,0,0,0,68.5,0,0,997.1,1010.6
66,2024-06-17T01:05:00,1.3,西,2,西,20.5,98,0,0,0,68.5,0,0,997.1,1010.6
67,2024-06-17T01:06:00,1.4,西,2.4,西,20.4,98,0,0,0,68.5,0,0,997.2,1010.7
68,2024-06-17T01:07:00,1.5,西,2.4,西,20.5,98.2,0,0,0,68.5,0,0,997.2,1010.7
69,2024-06-17T01:08:00,1.6,西,2.4,西,20.4,98.1,0,0,0,68.5,0,0,997.2,1010.7
70,2024-06-17T01:09:00,1.7,西,2.5,西,20.3,98.1,0,0,0,68.5,0,0,997.2,1010.7
71,2024-06-17T01:10:00,1.7,西,2.5,西,20.4,98.2,0,0,0,68.5,0,0,997.2,1010.7
72,2024-06-17T01:11:00,1.8,西,2.5,西,20.4,98.2,0,0,0,68.5,0,0,997.2,1010.7
73,2024-06-17T01:12:00,1.9,西,2.5,西,20.4,98.3,0,0,0,68.5,0,0,997.1,1010.6
74,2024-06-17T01:13:00,1.9,西,2.5,西,20.3,98.3,0,0,0,68.5,0,0,997.1,1010.6
75,2024-06-17T01:14:00,2,西,2.6,西北西,20.3,98.2,0,0,0,68.5,0,0,997.1,1010.6
76,2024-06-17T01:15:00,2,西,2.6,西北西,20.3,98.3,0,0,0,68.5,0,0,997.1,1010.6
77,2024-06-17T01:16:00,2,西,2.6,西北西,20.3,98.3,0,0,0,68.5,0,0,997.1,1010.6
78,2024-06-17T01:17:00,2,西,2.7,西,20.2,98.3,0,0,0,68.5,0,0,997.2,1010.7
79,2024-06-17T01:18:00,2.1,西,2.7,西,20.2,98.3,0,0,0,68.5,0,0,997.1,1010.6
80,2024-06-17T01:19:00,2.1,西,2.9,西北西,20.2,98.3,0,0,0,68.5,0,0,997.1,1010.6
81,2024-06-17T01:20:00,2.1,西,2.9,西北西,20.1,98.3,0,0,0,68.5,0,0,997.1,1010.6
82,2024-06-17T01:21:00,2.2,西,2.9,西北西,20.1,98.3,0,0,0,68.5,0,0,997.1,1010.6
83,2024-06-17T01:22:00,2.2,西,2.9,西北西,20.1,98.4,0,0,0,68.5,0,0,997.1,1010.6
84,2024-06-17T01:23:00,2.2,西,2.9,西北西,20.2,98.4,0,0,0,68.5,0,0,997.1,1010.6
85,2024-06-17T01:24:00,2.2,西,2.9,西北西,20,98.4,0,0,0,68.5,0,0,997.1,1010.6
86,2024-06-17T01:25:00,2.1,西,2.9,西北西,20.1,98.5,0,0,0,68.5,0,0,997.1,1010.6
87,2024-06-17T01:26:00,2.1,西,2.9,西北西,20,98.5,0,0,0,68.5,0,0,997.2,1010.7
88,2024-06-17T01:27:00,2.2,西,2.9,西北西,20,98.5,0,0,0,68.5,0,0,997.3,1010.8
89,2024-06-17T01:28:00,2.2,西,3.1,西,20,98.5,0,0,0,68.5,0,0,997.4,1010.9
90,2024-06-17T01:29:00,2.2,西,3.4,西,19.9,98.5,0,0,0,68.5,0,0,997.4,1011
91,2024-06-17T01:30:00,2.2,西,3.4,西,19.9,98.5,0,0,0,68.5,0,0,997.3,1010.9
92,2024-06-17T01:31:00,2.3,西,3.4,西,19.9,98.5,0,0,0,68.5,0,0,997.3,1010.9
93,2024-06-17T01:32:00,2.4,西,3.4,西,19.9,98.5,0,0,0,68.5,0,0,997.3,1010.9
94,2024-06-17T01:33:00,2.4,西,3.4,西,19.9,98.5,0,0,0,68.5,0,0,997.3,1010.9
95,2024-06-17T01:34:00,2.5,西,3.4,西,19.8,98.6,0,0,0,68.5,0,0,997.3,1010.9
96,2024-06-17T01:35:00,2.5,西,3.4,西,19.8,98.5,0,0,0,68.5,0,0,997.2,1010.8
97,2024-06-17T01:36:00,2.5,西,3.4,西,19.8,98.5,0,0,0,68.5,0,0,997.2,1010.8
98,2024-06-17T01:37:00,2.5,西,3.4,西,19.8,98.6,0,0,0,68.5,0,0,997.2,1010.8
99,2024-06-17T01:38:00,2.5,西,3.4,西,19.8,98.6,0,0,0,68.5,0,0,997.2,1010.8
100,2024-06-17T01:39:00,2.5,西,3.4,西,19.8,98.6,0,0,0,68.5,0,0,997.2,1010.8
101,2024-06-17T01:40:00,2.5,西,3.4,西,19.8,98.6,0,0,0,68.5,0,0,997.2,1010.8
102,2024-06-17T01:41:00,2.4,西,3.2,西,19.8,98.6,0,0,0,68.5,0,0,997.2,1010.8
103,2024-06-17T01:42:00,2.3,西,3.2,西,19.8,98.7,0,0,0,68.5,0,0,997.2,1010.8
104,2024-06-17T01:43:00,2.3,西,3.2,西,19.8,98.6,0,0,0,68.5,0,0,997.1,1010.7
105,2024-06-17T01:44:00,2.3,西,3,西,19.8,98.5,0,0,0,68.5,0,0,997.1,1010.7
106,2024-06-17T01:45:00,2.3,西,3,西,19.8,98.5,0,0,0,68.5,0,0,997.2,1010.8
107,2024-06-17T01:46:00,2.3,西,3,西,19.7,98.5,0,0,0,68.5,0,0,997.2,1010.8
108,2024-06-17T01:47:00,2.3,西,3,西,19.7,98.5,0,0,0,68.5,0,0,997.3,1010.9
109,2024-06-17T01:48:00,2.3,西,3,西,19.7,98.5,0,0,0,68.5,0,0,997.3,1010.9
110,2024-06-17T01:49:00,2.2,西,2.9,西,19.7,98.5,0,0,0,68.5,0,0,997.3,1010.9
111,2024-06-17T01:50:00,2.2,西,3.1,西,19.7,98.5,0,0,0,68.5,0,0,997.3,1010.9
112,2024-06-17T01:51:00,2.3,西,3.1,西,19.6,98.5,0,0,0,68.5,0,0,997.3,1010.9
113,2024-06-17T01:52:00,2.3,西,3.1,西,19.6,98.5,0,0,0,68.5,0,0,997.3,1010.9
114,2024-06-17T01:53:00,2.2,西,3.1,西,19.7,98.6,0,0,0,68.5,0,0,997.3,1010.9
115,2024-06-17T01:54:00,2.2,西,3.1,西,19.7,98.5,0,0,0,68.5,0,0,997.2,1010.8
116,2024-06-17T01:55:00,2.1,西,3.1,西,19.7,98.5,0,0,0,68.5,0,0,997.2,1010.8
117,2024-06-17T01:56:00,2.1,西,3.3,西,19.7,98.6,0,0,0,68.5,0,0,997.2,1010.8
118,2024-06-17T01:57:00,2.2,西,3.5,西北西,19.6,98.5,0,0,0,68.5,0,0,997.2,1010.8
119,2024-06-17T01:58:00,2.3,西,3.5,西北西,19.6,98.5,0,0,0,68.5,0,0,997.2,1010.8
120,2024-06-17T01:59:00,2.4,西,3.5,西北西,19.7,98.5,0,0,0,68.5,0,0,997.2,1010.8
121,2024-06-17T02:00:00,2.4,西,3.5,西北西,19.6,98.6,0,0,0,68.5,0,0,997.3,1010.9
122,2024-06-17T02:01:00,2.5,西,3.5,西北西,19.7,98.5,0,0,0,68.5,0,0,997.2,1010.8
123,2024-06-17T02:02:00,2.5,西,3.5,西北西,19.7,98.6,0,0,0,68.5,0,0,997.3,1010.9
124,2024-06-17T02:03:00,2.6,西,3.5,西北西,19.7,98.6,0,0,0,68.5,0,0,997.2,1010.8
125,2024-06-17T02:04:00,2.7,西,3.7,西,19.7,98.6,0,0,0,68.5,0,0,997.2,1010.8
126,2024-06-17T02:05:00,2.9,西,3.7,西,19.6,98.5,0,0,0,68.5,0,0,997.2,1010.8
127,2024-06-17T02:06:00,2.9,西,3.7,西,19.6,98.5,0,0,0,68.5,0,0,997.2,1010.8
128,2024-06-17T02:07:00,2.9,西,3.7,西,19.6,98.6,0,0,0,68.5,0,0,997.2,1010.8
129,2024-06-17T02:08:00,2.8,西,3.7,西,19.6,98.7,0,0,0,68.5,0,0,997.3,1010.9
130,2024-06-17T02:09:00,2.8,西,3.7,西,19.6,98.6,0,0,0,68.5,0,0,997.3,1010.9
131,2024-06-17T02:10:00,2.7,西,3.7,西,19.6,98.7,0,0,0,68.5,0,0,997.3,1010.9
132,2024-06-17T02:11:00,2.7,西,3.7,西,19.6,98.7,0,0,0,68.5,0,0,997.3,1010.9
133,2024-06-17T02:12:00,2.6,西,3.7,西,19.6,98.7,0,0,0,68.5,0,0,997.3,1010.9
134,2024-06-17T02:13:00,2.6,西,3.7,西,19.5,98.7,0,0,0,68.5,0,0,997.3,1010.9
135,2024-06-17T02:14:00,2.5,西,3.6,西,19.5,98.7,0,0,0,68.5,0,0,997.3,1010.9
136,2024-06-17T02:15:00,2.4,西,3.6,西,19.5,98.7,0,0,0,68.5,0,0,997.4,1011
137,2024-06-17T02:16:00,2.4,西,3.6,西,19.5,98.7,0,0,0,68.5,0,0,997.4,1011
138,2024-06-17T02:17:00,2.4,西,3.6,西,19.5,98.7,0,0,0,68.5,0,0,997.4,1011
139,2024-06-17T02:18:00,2.3,西,3.6,西,19.5,98.7,0,0,0,68.5,0,0,997.5,1011.1
140,2024-06-17T02:19:00,2.3,西,3.6,西,19.5,98.7,0,0,0,68.5,0,0,997.5,1011.1
141,2024-06-17T02:20:00,2.3,西,3.6,西,19.5,98.7,0,0,0,68.5,0,0,997.5,1011.1
142,2024-06-17T02:21:00,2.3,西,3.1,西,19.6,98.7,0,0,0,68.5,0,0,997.5,1011.1
143,2024-06-17T02:22:00,2.3,西,3.2,西,19.5,98.7,0,0,0,68.5,0,0,997.5,1011.1
144,2024-06-17T02:23:00,2.4,西,3.3,西,19.5,98.7,0,0,0,68.5,0,0,997.5,1011.1
145,2024-06-17T02:24:00,2.3,西,3.3,西,19.5,98.7,0,0,0,68.5,0,0,997.5,1011.1
146,2024-06-17T02:25:00,2.3,西,3.3,西,19.5,98.7,0,0,0,68.5,0,0,997.5,1011.1
147,2024-06-17T02:26:00,2.4,西,3.3,西,19.5,98.7,0,0,0,68.5,0,0,997.5,1011.1
148,2024-06-17T02:27:00,2.4,西,3.3,西,19.6,98.7,0,0,0,68.5,0,0,997.5,1011.1
149,2024-06-17T02:28:00,2.4,西,3.3,西,19.5,98.8,0,0,0,68.5,0,0,997.5,1011.1
150,2024-06-17T02:29:00,2.5,西,3.4,西北西,19.5,98.7,0,0,0,68.5,0,0,997.5,1011.1
151,2024-06-17T02:30:00,2.5,西,3.4,西北西,19.5,98.7,0,0,0,68.5,0,0,997.6,1011.2
152,2024-06-17T02:31:00,2.4,西,3.4,西北西,19.6,98.7,0,0,0,68.5,0,0,997.5,1011.1
153,2024-06-17T02:32:00,2.4,西,3.4,西北西,19.6,98.8,0,0,0,68.5,0,0,997.5,1011.1
154,2024-06-17T02:33:00,2.3,西,3.4,西北西,19.6,98.7,0,0,0,68.5,0,0,997.5,1011.1
155,2024-06-17T02:34:00,2.3,西,3.4,西北西,19.5,98.7,0,0,0,68.5,0,0,997.5,1011.1
156,2024-06-17T02:35:00,2.3,西,3.4,西北西,19.5,98.7,0,0,0,68.5,0,0,997.5,1011.1
157,2024-06-17T02:36:00,2.3,西,3.4,西北西,19.4,98.7,0,0,0,68.5,0,0,997.5,1011.1
158,2024-06-17T02:37:00,2.3,西,3.4,西北西,19.4,98.7,0,0,0,68.5,0,0,997.5,1011.1
159,2024-06-17T02:38:00,2.3,西,3.4,西北西,19.4,98.8,0,0,0,68.5,0,0,997.5,1011.1
160,2024-06-17T02:39:00,2.3,西,3,西,19.4,98.8,0,0,0,68.5,0,0,997.5,1011.1
161,2024-06-17T02:40:00,2.3,西,3,西,19.4,98.8,0,0,0,68.5,0,0,997.5,1011.1
162,2024-06-17T02:41:00,2.3,西,3,西,19.4,98.8,0,0,0,68.5,0,0,997.5,1011.1
163,2024-06-17T02:42:00,2.3,西,3,西,19.4,98.8,0,0,0,68.5,0,0,997.5,1011.1
164,2024-06-17T02:43:00,2.3,西,3,西,19.4,98.9,0,0,0,68.5,0,0,997.5,1011.1
165,2024-06-17T02:44:00,2.3,西,3,西,19.4,98.9,0,0,0,68.5,0,0,997.6,1011.2
166,2024-06-17T02:45:00,2.3,西,3,西,19.3,98.9,0,0,0,68.5,0,0,997.6,1011.2
167,2024-06-17T02:46:00,2.2,西,3,西,19.4,98.9,0,0,0,68.5,0,0,997.6,1011.2
168,2024-06-17T02:47:00,2.2,西,3,西,19.4,99,0,0,0,68.5,0,0,997.5,1011.1
169,2024-06-17T02:48:00,2.2,西,2.8,西,19.3,98.9,0,0,0,68.5,0,0,997.6,1011.2
170,2024-06-17T02:49:00,2.2,西,2.8,西,19.3,98.9,0,0,0,68.5,0,0,997.6,1011.2
171,2024-06-17T02:50:00,2.1,西,2.8,西,19.3,99,0,0,0,68.5,0,0,997.7,1011.3
172,2024-06-17T02:51:00,2.1,西,2.8,西,19.4,99,0,0,0,68.5,0,0,997.6,1011.2
173,2024-06-17T02:52:00,2.1,西,2.8,西,19.4,99,0,0,0,68.5,0,0,997.6,1011.2
174,2024-06-17T02:53:00,2,西,2.8,西,19.5,99,0,0,0,68.5,0,0,997.5,1011.1
175,2024-06-17T02:54:00,1.9,西,2.8,西,19.5,99.1,0,0,0,68.5,0,0,997.5,1011.1
176,2024-06-17T02:55:00,1.8,西,2.8,西,19.5,99,0,0,0,68.5,0,0,997.5,1011.1
177,2024-06-17T02:56:00,1.8,西,2.7,西,19.4,98.9,0,0,0,68.5,0,0,997.5,1011.1
178,2024-06-17T02:57:00,1.8,西,2.7,西,19.4,98.8,0,0,0,68.5,0,0,997.4,1011
179,2024-06-17T02:58:00,1.7,西,2.6,西,19.4,98.9,0,0,0,68.5,0,0,997.5,1011.1
180,2024-06-17T02:59:00,1.6,西,2.5,西,19.5,98.9,0,0,0,68.5,0,0,997.5,1011.1
181,2024-06-17T03:00:00,1.6,西,2.5,西,19.5,98.9,0,0,0,68.5,0,0,997.5,1011.1
182,2024-06-17T03:01:00,1.6,西,2.5,西,19.5,98.8,0,0,0,68.5,0,0,997.5,1011.1
183,2024-06-17T03:02:00,1.5,西,2,西,19.6,98.8,0,0,0,68.5,0,0,997.6,1011.2
184,2024-06-17T03:03:00,1.5,西,2,西,19.5,98.8,0,0,0,68.5,0,0,997.6,1011.2
185,2024-06-17T03:04:00,1.4,西,2,西,19.8,98.8,0,0,0,68.5,0,0,997.6,1011.2
186,2024-06-17T03:05:00,1.4,西,1.8,西北西,19.7,98.8,0,0,0,68.5,0,0,997.6,1011.2
187,2024-06-17T03:06:00,1.4,西,1.8,西北西,19.7,98.7,0,0,0,68.5,0,0,997.7,1011.3
188,2024-06-17T03:07:00,1.4,西,2.3,西,19.7,98.7,0,0,0,68.5,0,0,997.7,1011.3
189,2024-06-17T03:08:00,1.4,西,2.6,西,19.5,98.5,0,0,0,68.5,0,0,997.7,1011.3
190,2024-06-17T03:09:00,1.5,西,2.7,西,19.4,98.4,0,0,0,68.5,0,0,997.7,1011.3
191,2024-06-17T03:10:00,1.5,西,2.7,西,19.4,98.4,0,0,0,68.5,0,0,997.7,1011.3
192,2024-06-17T03:11:00,1.5,西,2.7,西,19.5,98.5,0,0,0,68.5,0,0,997.7,1011.3
193,2024-06-17T03:12:00,1.5,西,2.7,西,19.5,98.5,0,0,0,68.5,0,0,997.7,1011.3
194,2024-06-17T03:13:00,1.6,西,2.7,西,19.6,98.6,0,0,0,68.5,0,0,997.8,1011.4
195,2024-06-17T03:14:00,1.7,西,2.7,西,19.5,98.6,0,0,0,68.5,0,0,997.7,1011.3
196,2024-06-17T03:15:00,1.7,西,2.7,西,19.5,98.5,0,0,0,68.5,0,0,997.7,1011.3
197,2024-06-17T03:16:00,1.8,西,2.7,西,19.5,98.5,0,0,0,68.5,0,0,997.7,1011.3
198,2024-06-17T03:17:00,1.9,西,2.7,西,19.5,98.5,0,0,0,68.5,0,0,997.7,1011.3
199,2024-06-17T03:18:00,1.8,西,2.7,西,19.4,98.5,0,0,0,68.5,0,0,997.7,1011.3
200,2024-06-17T03:19:00,1.8,西,2.5,西,19.4,98.5,0,0,0,68.5,0,0,997.8,1011.4
201,2024-06-17T03:20:00,1.8,西,2.5,西,19.4,98.5,0,0,0,68.5,0,0,997.8,1011.4
202,2024-06-17T03:21:00,1.7,西,2.5,西,19.4,98.6,0,0,0,68.5,0,0,997.8,1011.4
203,2024-06-17T03:22:00,1.8,西,2.5,西,19.4,98.5,0,0,0,68.5,0,0,997.7,1011.3
204,2024-06-17T03:23:00,1.8,西,2.6,西南西,19.3,98.5,0,0,0,68.5,0,0,997.7,1011.3
205,2024-06-17T03:24:00,1.8,西,2.6,西南西,19.3,98.5,0,0,0,68.5,0,0,997.7,1011.3
206,2024-06-17T03:25:00,1.8,西,2.6,西南西,19.4,98.6,0,0,0,68.5,0,0,997.8,1011.4
207,2024-06-17T03:26:00,1.7,西,2.6,西南西,19.4,98.6,0,0,0,68.5,0,0,997.8,1011.4
208,2024-06-17T03:27:00,1.7,西,2.6,西南西,19.4,98.6,0,0,0,68.5,0,0,997.8,1011.4
209,2024-06-17T03:28:00,1.8,西,2.6,西南西,19.3,98.5,0,0,0,68.5,0,0,997.9,1011.5
210,2024-06-17T03:29:00,1.8,西,2.6,西南西,19.3,98.5,0,0,0,68.5,0,0,997.9,1011.5
211,2024-06-17T03:30:00,1.8,西,2.6,西南西,19.3,98.5,0,0,0,68.5,0,0,997.9,1011.5
212,2024-06-17T03:31:00,1.9,西,2.6,西南西,19.3,98.5,0,0,0,68.5,0,0,997.8,1011.4
213,2024-06-17T03:32:00,1.8,西,2.6,西南西,19.2,98.5,0,0,0,68.5,0,0,997.8,1011.4
214,2024-06-17T03:33:00,1.8,西,2.6,西,19.2,98.5,0,0,0,68.5,0,0,997.8,1011.4
215,2024-06-17T03:34:00,1.9,西,2.6,西,19.3,98.5,0,0,0,68.5,0,0,997.9,1011.5
216,2024-06-17T03:35:00,1.9,西,2.6,西,19.3,98.5,0,0,0,68.5,0,0,997.9,1011.5
217,2024-06-17T03:36:00,1.9,西,2.6,西,19.4,98.5,0,0,0,68.5,0,0,997.9,1011.5
218,2024-06-17T03:37:00,1.8,西,2.5,西,19.5,98.6,0,0,0,68.5,0,0,997.9,1011.5
219,2024-06-17T03:38:00,1.8,西,2.3,西,19.5,98.6,0,0,0,68.5,0,0,997.9,1011.5
220,2024-06-17T03:39:00,1.8,西,2.3,西,19.4,98.4,0,0,0,68.5,0,0,997.9,1011.5
221,2024-06-17T03:40:00,1.8,西,2.3,西,19.4,98.4,0,0,0,68.5,0,0,998,1011.6
222,2024-06-17T03:41:00,1.8,西,2.3,西,19.4,98.5,0,0,0,68.5,0,0,998,1011.6
223,2024-06-17T03:42:00,1.9,西,2.4,西,19.4,98.4,0,0,0,68.5,0,0,997.9,1011.5
224,2024-06-17T03:43:00,1.8,西,2.4,西,19.4,98.4,0,0,0,68.5,0,0,997.9,1011.5
225,2024-06-17T03:44:00,1.8,西,2.4,西,19.4,98.4,0,0,0,68.5,0,0,997.9,1011.5
226,2024-06-17T03:45:00,1.8,西,2.4,西,19.4,98.4,0,0,0,68.5,0,0,997.9,1011.5
227,2024-06-17T03:46:00,1.8,西,2.4,西,19.3,98.3,0,0,0,68.5,0,0,997.9,1011.5
228,2024-06-17T03:47:00,1.8,西,2.6,西,19.4,98.3,0,0,0,68.5,0,0,997.9,1011.5
229,2024-06-17T03:48:00,1.8,西,2.7,西,19.4,98.3,0,0,0,68.5,0,0,997.9,1011.5
230,2024-06-17T03:49:00,1.9,西,2.7,西,19.3,98.3,0,0,0,68.5,0,0,997.9,1011.5
231,2024-06-17T03:50:00,1.9,西,2.8,西,19.3,98.3,0,0,0,68.5,0,0,997.9,1011.5
232,2024-06-17T03:51:00,2,西,2.8,西,19.3,98.4,0,0,0,68.5,0,0,998,1011.6
233,2024-06-17T03:52:00,2,西,3,西,19.3,98.4,0,0,0,68.5,0,0,998,1011.6
234,2024-06-17T03:53:00,2,西,3,西,19.3,98.4,0,0,0,68.5,0,0,998,1011.6
235,2024-06-17T03:54:00,2,西,3,西,19.3,98.5,0,0,0,68.5,0,0,997.9,1011.5
236,2024-06-17T03:55:00,2,西,3,西,19.2,98.5,0,0,0,68.5,0,0,997.9,1011.5
237,2024-06-17T03:56:00,2,西,3,西,19.3,98.6,0,0,0,68.5,0,0,997.9,1011.5
238,2024-06-17T03:57:00,1.9,西,3,西,19.3,98.7,0,0,0,68.5,0,0,997.9,1011.5
239,2024-06-17T03:58:00,1.9,西,3,西,19.3,98.7,0,0,0,68.5,0,0,998,1011.6
240,2024-06-17T03:59:00,1.8,西,3,西,19.4,98.7,0,0,0,68.5,0,0,998,1011.6
241,2024-06-17T04:00:00,1.8,西,3,西,19.3,98.7,0,0,0,68.5,0,0,998.1,1011.7
242,2024-06-17T04:01:00,1.8,西,3,西,19.3,98.7,0,0,0,68.5,0,0,998.1,1011.7
243,2024-06-17T04:02:00,1.8,西,2.8,西,19.2,98.6,0,0,0,68.5,0,0,998.1,1011.7
244,2024-06-17T04:03:00,1.8,西,3.2,西,19.2,98.5,0,0,0,68.5,0,0,998.2,1011.8
245,2024-06-17T04:04:00,2,西,3.2,西,19.1,98.6,0,0,0,68.5,0,0,998.1,1011.7
246,2024-06-17T04:05:00,2,西,3.2,西,19.1,98.5,0,0,0,68.5,0,0,998.1,1011.7
247,2024-06-17T04:06:00,2,西,3.2,西,19.2,98.6,0,0,0,68.5,0,0,998.1,1011.7
248,2024-06-17T04:07:00,2.1,西,3.2,西,19.1,98.6,0,0,0,68.5,0,0,998.2,1011.8
249,2024-06-17T04:08:00,2.2,西,3.2,西,19.1,98.6,0,0,0,68.5,0,0,998.2,1011.8
250,2024-06-17T04:09:00,2.2,西,3.2,西,19.1,98.6,0,0,0,68.5,0,0,998.2,1011.8
251,2024-06-17T04:10:00,2.3,西,3.2,西,19.1,98.6,0,0,0,68.5,0,0,998.2,1011.8
252,2024-06-17T04:11:00,2.3,西,3.2,西,19.1,98.7,0,0,0,68.5,0,0,998.2,1011.8
253,2024-06-17T04:12:00,2.2,西,3.2,西,19.1,98.7,0,0,0,68.5,0,0,998.2,1011.8
254,2024-06-17T04:13:00,2.1,西,3,西,19.2,98.7,0,0,0,68.5,0,0,998.1,1011.7
255,2024-06-17T04:14:00,2,西,3,西,19.1,98.7,0,0,0,68.5,0,0,998.2,1011.8
256,2024-06-17T04:15:00,2,西,3.2,西,19.1,98.7,0,0,0,68.5,0,0,998.2,1011.8
257,2024-06-17T04:16:00,2.1,西,3.2,西,19,98.6,0,0,0,68.5,0,0,998.2,1011.8
258,2024-06-17T04:17:00,2,西,3.2,西,19,98.7,0,0,0,68.5,0,0,998.2,1011.8
259,2024-06-17T04:18:00,2,西,3.2,西,18.9,98.7,0,0,0,68.5,0,0,998.3,1011.9
260,2024-06-17T04:19:00,2,西,3.2,西,18.9,98.7,0,0,0,68.5,0,0,998.3,1011.9
261,2024-06-17T04:20:00,1.9,西,3.2,西,19,98.8,0,0,0,68.5,0,0,998.3,1011.9
262,2024-06-17T04:21:00,2,西,3.4,西,18.9,98.8,0,0,0,68.5,0,0,998.3,1011.9
263,2024-06-17T04:22:00,2.1,西,3.4,西,19,98.8,0,0,0,68.5,0,0,998.4,1012
264,2024-06-17T04:23:00,2.2,西,3.4,西,18.9,98.7,0,0,0,68.5,0,0,998.4,1012
265,2024-06-17T04:24:00,2.3,西,3.4,西,18.8,98.7,0,0,0,68.5,0,0,998.3,1011.9
266,2024-06-17T04:25:00,2.2,西,3.4,西,18.9,98.7,0,0,0,68.5,0,0,998.3,1011.9
267,2024-06-17T04:26:00,2.2,西,3.4,西,18.8,98.7,0,0,0,68.5,0,0,998.2,1011.8
268,2024-06-17T04:27:00,2.3,西,3.4,西,18.8,98.7,0,0,0,68.5,0,0,998.2,1011.8
269,2024-06-17T04:28:00,2.3,西,3.4,西,18.9,98.7,0,0,0,68.5,0,0,998.2,1011.8
270,2024-06-17T04:29:00,2.3,西,3.4,西,18.8,98.7,0,0,0,68.5,0,0,998.2,1011.8
271,2024-06-17T04:30:00,2.4,西,3.4,西,18.8,98.7,0,0,0,68.5,0,0,998.2,1011.8
272,2024-06-17T04:31:00,2.4,西,3.3,西,18.8,98.7,0,0,0,68.5,0,0,998.2,1011.8
273,2024-06-17T04:32:00,2.3,西,3.3,西,18.8,98.7,0,0,0,68.5,0,0,998.2,1011.8
274,2024-06-17T04:33:00,2.2,西,3.3,西,18.8,98.7,0,0,0,68.5,0,0,998.2,1011.8
275,2024-06-17T04:34:00,2.2,西,3.3,西,18.8,98.7,0,0,0,68.5,0,0,998.3,1011.9
276,2024-06-17T04:35:00,2.2,西,3.3,西,18.8,98.6,0,0,0,68.5,0,0,998.3,1011.9
277,2024-06-17T04:36:00,2.3,西,3.2,西,18.8,98.6,0,0,0,68.5,0,0,998.4,1012
278,2024-06-17T04:37:00,2.3,西,3.2,西,18.8,98.6,0,0,0,68.5,0,0,998.4,1012
279,2024-06-17T04:38:00,2.3,西,3.2,西,18.8,98.5,0,0,0,68.5,0,0,998.5,1012.1
280,2024-06-17T04:39:00,2.3,西,3.2,西,18.8,98.5,0,0,0,68.5,0,0,998.5,1012.1
281,2024-06-17T04:40:00,2.3,西,3.2,西,18.7,98.5,0,0,0,68.5,0,0,998.5,1012.1
282,2024-06-17T04:41:00,2.3,西,3.2,西,18.7,98.4,0,0,0,68.5,0,0,998.5,1012.1
283,2024-06-17T04:42:00,2.4,西,3.2,西,18.7,98.4,0,0,0,68.5,0,0,998.5,1012.1
284,2024-06-17T04:43:00,2.5,西,3.2,西,18.7,98.4,0,0,0,68.5,0,0,998.5,1012.1
285,2024-06-17T04:44:00,2.4,西,3.2,西,18.7,98.3,0,0,0,68.5,0,0,998.5,1012.1
286,2024-06-17T04:45:00,2.4,西,3.2,西,18.6,98.3,0,0,0,68.5,0,0,998.5,1012.1
287,2024-06-17T04:46:00,2.4,西,3.5,西,18.7,98.4,0,0,0,68.5,0,0,998.6,1012.2
288,2024-06-17T04:47:00,2.4,西,3.5,西,18.6,98.4,0,0,0,68.5,0,0,998.6,1012.2
289,2024-06-17T04:48:00,2.4,西,3.5,西,18.8,98.5,0,0,0,68.5,0,0,998.6,1012.2
290,2024-06-17T04:49:00,2.3,西,3.5,西,18.8,98.5,0,0,0,68.5,0,0,998.6,1012.2
291,2024-06-17T04:50:00,2.3,西,3.5,西,18.8,98.6,0,0,0,68.5,0,0,998.6,1012.2
292,2024-06-17T04:51:00,2.2,西,3.5,西,18.9,98.6,0,0,0,68.5,0,0,998.6,1012.2
293,2024-06-17T04:52:00,2.1,西,3.5,西,18.8,98.4,0,0,0,68.5,0,0,998.6,1012.2
294,2024-06-17T04:53:00,2.1,西,3.5,西,18.8,98.5,0,0,0,68.5,0,0,998.6,1012.2
295,2024-06-17T04:54:00,2.2,西,3.5,西,18.7,98.4,0,0,0,68.5,0,0,998.6,1012.2
296,2024-06-17T04:55:00,2.2,西,3.5,西,18.7,98.4,0,0,0,68.5,0,0,998.6,1012.2
297,2024-06-17T04:56:00,2.2,西,3.3,西,18.7,98.3,0,0,0,68.5,0,0,998.6,1012.2
298,2024-06-17T04:57:00,2.2,西,3,西,18.6,98.3,0,0,0,68.5,0,0,998.6,1012.2
299,2024-06-17T04:58:00,2.2,西,3,西,18.6,98.3,0,0,0,68.5,0,0,998.6,1012.2
300,2024-06-17T04:59:00,2.2,西,3,西,18.7,98.3,0,0,0,68.5,0,0,998.6,1012.2
301,2024-06-17T05:00:00,2.2,西,3,西,18.7,98.3,0,0,0,68.5,0,0,998.6,1012.2
302,2024-06-17T05:01:00,2.3,西,3.3,西南西,18.6,98.2,0,0,0,68.5,0,0,998.7,1012.3
303,2024-06-17T05:02:00,,"",,"",,,,,,,,,,
304,2024-06-17T05:03:00,2.4,西,3.5,西南西,18.5,98,0,0,0,68.5,0,0,998.6,1012.2
305,2024-06-17T05:04:00,2.4,西,4,西,18.5,98.1,0,0,0,68.5,0,0,998.6,1012.2
306,2024-06-17T05:05:00,2.4,西,4,西,18.5,98,0,0,0,68.5,0,0,998.5,1012.1
307,2024-06-17T05:06:00,2.4,西,4,西,18.5,98,0,0,0,68.5,0.01,0,998.6,1012.2
308,2024-06-17T05:07:00,2.4,西,4,西,18.5,98,0,0,0,68.5,0.01,0,998.5,1012.1
309,2024-06-17T05:08:00,2.5,西,4,西,18.5,98,0,0,0,68.5,0.01,0,998.5,1012.1
310,2024-06-17T05:09:00,2.5,西,4,西,18.5,98.1,0,0,0,68.5,0.01,0,998.5,1012.1
311,2024-06-17T05:10:00,2.5,西,4,西,18.5,98.1,0,0,0,68.5,0.01,0,998.5,1012.1
312,2024-06-17T05:11:00,2.5,西,4,西,18.5,98.1,0,0,0,68.5,0.01,0,998.6,1012.2
313,2024-06-17T05:12:00,2.5,西,4,西,18.5,98,0,0,0,68.5,0.01,0,998.6,1012.2
314,2024-06-17T05:13:00,2.5,西,4,西,18.5,98,0,0,0,68.5,0.01,0,998.6,1012.2
315,2024-06-17T05:14:00,2.5,西,3.7,西,18.4,98,0,0,0,68.5,0.01,0,998.7,1012.3
316,2024-06-17T05:15:00,2.6,西,3.8,西,18.5,98.1,0,0,0,68.5,0.01,0,998.7,1012.3
317,2024-06-17T05:16:00,2.6,西,3.8,西,18.5,98.2,0,0,0,68.5,0.01,0,998.7,1012.3
318,2024-06-17T05:17:00,2.7,西,4,西,18.5,98.2,0,0,0,68.5,0.01,0,998.8,1012.4
319,2024-06-17T05:18:00,2.8,西,4,西,18.4,98.3,0,0,0,68.5,0.01,0,998.7,1012.3
320,2024-06-17T05:19:00,2.8,西,4,西,18.4,98.3,0,0,0,68.5,0.02,0,998.7,1012.3
321,2024-06-17T05:20:00,2.9,西,4,西,18.5,98.4,0,0,0,68.5,0.02,0,998.6,1012.2
322,2024-06-17T05:21:00,2.9,西,4,西,18.5,98.4,0,0,0,68.5,0.02,0,998.6,1012.2
323,2024-06-17T05:22:00,2.9,西,4,西,18.5,98.3,0,0,0,68.5,0.02,0,998.6,1012.2
324,2024-06-17T05:23:00,2.9,西,4,西,18.4,98.3,0,0,0,68.5,0.02,0,998.7,1012.3
325,2024-06-17T05:24:00,2.8,西,4,西,18.5,98.3,0,0,0,68.5,0.02,0,998.6,1012.2